Location: Ballingbuur
(53.0000°N, 5.7667°E)
Time: 19:21:42
(UTC+00:00)

Meteor 1-31 Rocket - Pass Details

Date: 29 November 2020
Orbit: 520 x 546 km, 97.6° (Epoch: 24 January)

Event Time Altitude Azimuth Distance (km) Brightness Sun altitude
Rises 03:59:22 0° 21° (NNE) 2,698 6.6 -29.9°
Reaches altitude 10° 04:01:40 10° 31° (NNE) 1,797 5.8 -29.5°
Enters shadow 04:05:00 32° 90° (E) 931 4.5 -29.0°
